• In Uzbekistan
  • List of Countries
  • For 7 days
  • Water Temperature
  • Satellite Maps
  • Weather Map
  • Weather Widgets
  • user-avatar
    Login

    Hourly Weather Tirana

    Today, 23 November, Thursday

    Time Temperature Precipitation Wind Pressure Humidity
    00:00 +9°C° 0 mm 1 mps 758 mmHg 76%
    01:00 +9°C° 0 mm 1 mps 758 mmHg 75%
    02:00 +8°C° 0 mm 2 mps 758 mmHg 74%
    03:00 +8°C° 0 mm 2 mps 757 mmHg 74%
    04:00 +8°C° 0 mm 2 mps 757 mmHg 73%
    05:00 +8°C° 0 mm 2 mps 757 mmHg 72%
    06:00 +8°C° 0 mm 2 mps 757 mmHg 71%
    07:00 +8°C° 0 mm 2 mps 758 mmHg 70%
    08:00 +10°C° 0 mm 2 mps 758 mmHg 64%
    09:00 +13°C° 0 mm 1 mps 758 mmHg 57%
    10:00 +15°C° 0 mm 1 mps 758 mmHg 51%
    11:00 +16°C° 0 mm 1 mps 758 mmHg 50%
    12:00 +16°C° 0 mm 1 mps 757 mmHg 50%
    13:00 +18°C° 0 mm 1 mps 757 mmHg 49%
    14:00 +16°C° 0 mm 1 mps 757 mmHg 55%
    15:00 +14°C° 0 mm 1 mps 757 mmHg 61%
    16:00 +13°C° 0 mm 1 mps 757 mmHg 68%
    17:00 +13°C° 0 mm 1 mps 757 mmHg 69%
    18:00 +12°C° 0 mm 1 mps 758 mmHg 71%
    19:00 +11°C° 0 mm 1 mps 758 mmHg 72%
    20:00 +11°C° 0 mm 1 mps 758 mmHg 71%
    21:00 +11°C° 0 mm 1 mps 758 mmHg 70%
    22:00 +11°C° 0 mm 1 mps 758 mmHg 69%
    23:00 +11°C° 0 mm 1 mps 758 mmHg 68%

    Tomorrow, 24 November, Friday

    Time Temperature Precipitation Wind Pressure Humidity
    00:00 +10°C° 0 mm 1 mps 758 mmHg 68%
    01:00 +10°C° 0 mm 1 mps 758 mmHg 67%
    02:00 +9°C° 0 mm 2 mps 758 mmHg 67%
    03:00 +9°C° 0 mm 2 mps 758 mmHg 67%
    04:00 +9°C° 0 mm 2 mps 758 mmHg 67%
    05:00 +9°C° 0 mm 2 mps 758 mmHg 68%
    06:00 +9°C° 0 mm 2 mps 758 mmHg 68%
    07:00 +9°C° 0 mm 2 mps 758 mmHg 68%
    08:00 +12°C° 0 mm 1 mps 758 mmHg 63%
    09:00 +14°C° 0 mm 1 mps 758 mmHg 58%
    10:00 +16°C° 0 mm 1 mps 758 mmHg 54%
    11:00 +16°C° 0 mm 1 mps 758 mmHg 54%
    12:00 +16°C° 0 mm 1 mps 758 mmHg 55%
    13:00 +18°C° 0 mm 1 mps 758 mmHg 56%
    14:00 +16°C° 0 mm 1 mps 758 mmHg 63%
    15:00 +14°C° 0 mm 1 mps 758 mmHg 69%
    16:00 +13°C° 0 mm 1 mps 758 mmHg 76%
    17:00 +13°C° 0 mm 1 mps 758 mmHg 78%
    18:00 +12°C° 0 mm 1 mps 758 mmHg 81%
    19:00 +11°C° 0 mm 1 mps 758 mmHg 83%
    20:00 +11°C° 0 mm 1 mps 758 mmHg 83%
    21:00 +11°C° 0 mm 1 mps 759 mmHg 82%
    22:00 +11°C° 0 mm 1 mps 759 mmHg 82%
    23:00 +10°C° 0 mm 1 mps 759 mmHg 81%

    Day after tomorrow, 25 November, Saturday

    Time Temperature Precipitation Wind Pressure Humidity
    00:00 +10°C° 0 mm 1 mps 759 mmHg 80%
    01:00 +10°C° 0 mm 1 mps 758 mmHg 79%
    02:00 +10°C° 0 mm 1 mps 758 mmHg 78%
    03:00 +9°C° 0 mm 2 mps 758 mmHg 77%
    04:00 +9°C° 0 mm 2 mps 758 mmHg 76%
    05:00 +9°C° 0 mm 2 mps 758 mmHg 75%
    06:00 +8°C° 0 mm 2 mps 758 mmHg 74%
    07:00 +8°C° 0 mm 2 mps 758 mmHg 73%
    08:00 +10°C° 0 mm 2 mps 758 mmHg 67%
    09:00 +13°C° 0 mm 2 mps 758 mmHg 61%
    10:00 +15°C° 0 mm 1 mps 758 mmHg 55%
    11:00 +16°C° 0 mm 1 mps 757 mmHg 55%
    12:00 +16°C° 0 mm 1 mps 757 mmHg 55%
    13:00 +18°C° 0 mm 1 mps 756 mmHg 55%
    14:00 +16°C° 0 mm 1 mps 756 mmHg 61%
    15:00 +14°C° 0 mm 1 mps 756 mmHg 67%
    16:00 +13°C° 0 mm 1 mps 756 mmHg 74%
    17:00 +13°C° 0 mm 2 mps 756 mmHg 76%
    18:00 +12°C° 0 mm 2 mps 757 mmHg 79%
    19:00 +10°C° 0 mm 2 mps 757 mmHg 82%
    20:00 +10°C° 0 mm 3 mps 757 mmHg 82%
    21:00 +10°C° 0 mm 3 mps 757 mmHg 82%
    22:00 +10°C° 0 mm 3 mps 757 mmHg 81%
    23:00 +10°C° 0 mm 3 mps 757 mmHg 80%

    26 November, Sunday

    Time Temperature Precipitation Wind Pressure Humidity
    00:00 +10°C° 0 mm 3 mps 757 mmHg 79%
    01:00 +8°C° 0 mm 4 mps 757 mmHg 78%
    02:00 +8°C° 0 mm 4 mps 756 mmHg 77%
    03:00 +8°C° 0 mm 4 mps 756 mmHg 76%
    04:00 +8°C° 0 mm 4 mps 756 mmHg 75%
    05:00 +10°C° 0 mm 4 mps 756 mmHg 75%
    06:00 +9°C° 0 mm 5 mps 756 mmHg 74%
    07:00 +9°C° 0 mm 5 mps 756 mmHg 74%
    08:00 +10°C° 0.1 mm 5 mps 756 mmHg 70%
    09:00 +13°C° 0.1 mm 5 mps 755 mmHg 66%
    10:00 +14°C° 0.1 mm 5 mps 755 mmHg 61%
    11:00 +15°C° 0.1 mm 6 mps 754 mmHg 61%
    12:00 +16°C° 0.1 mm 6 mps 754 mmHg 61%
    13:00 +16°C° 0.1 mm 7 mps 753 mmHg 61%
    14:00 +15°C° 0.1 mm 7 mps 753 mmHg 66%
    15:00 +15°C° 0.1 mm 7 mps 752 mmHg 70%
    16:00 +14°C° 0.1 mm 6 mps 752 mmHg 75%
    17:00 +12°C° 0.8 mm 7 mps 752 mmHg 76%
    18:00 +12°C° 0.8 mm 7 mps 752 mmHg 77%
    19:00 +12°C° 0.8 mm 7 mps 752 mmHg 78%
    20:00 +12°C° 1.2 mm 7 mps 752 mmHg 79%
    21:00 +11°C° 1.2 mm 6 mps 752 mmHg 79%
    22:00 +11°C° 1.2 mm 6 mps 751 mmHg 80%
    23:00 +11°C° 0.8 mm 6 mps 751 mmHg 83%

    27 November, Monday

    Time Temperature Precipitation Wind Pressure Humidity
    00:00 +12°C° 0.8 mm 5 mps 751 mmHg 86%
    01:00 +12°C° 0.8 mm 5 mps 751 mmHg 89%
    02:00 +11°C° 0.3 mm 4 mps 751 mmHg 89%
    03:00 +11°C° 0.3 mm 4 mps 751 mmHg 90%
    04:00 +11°C° 0.3 mm 4 mps 751 mmHg 90%
    05:00 +11°C° 0.7 mm 4 mps 751 mmHg 90%
    06:00 +9°C° 0.7 mm 5 mps 752 mmHg 89%
    07:00 +9°C° 0.7 mm 5 mps 752 mmHg 89%
    08:00 +10°C° 0.3 mm 5 mps 753 mmHg 82%
    09:00 +12°C° 0.3 mm 5 mps 753 mmHg 74%
    10:00 +13°C° 0.3 mm 5 mps 753 mmHg 67%
    11:00 +13°C° 0.1 mm 5 mps 753 mmHg 68%
    12:00 +13°C° 0.1 mm 5 mps 753 mmHg 69%
    13:00 +13°C° 0.1 mm 5 mps 753 mmHg 70%
    14:00 +12°C° 0.2 mm 5 mps 753 mmHg 72%
    15:00 +12°C° 0.2 mm 5 mps 754 mmHg 75%
    16:00 +10°C° 0.2 mm 5 mps 754 mmHg 78%
    17:00 +10°C° 0.1 mm 5 mps 754 mmHg 78%
    18:00 +9°C° 0.1 mm 5 mps 755 mmHg 79%
    19:00 +9°C° 0.1 mm 5 mps 755 mmHg 79%
    20:00 +8°C° 0 mm 4 mps 755 mmHg 79%
    21:00 +8°C° 0 mm 4 mps 756 mmHg 79%
    22:00 +8°C° 0 mm 4 mps 756 mmHg 78%
    23:00 +7°C° 0 mm 4 mps 756 mmHg 79%

    28 November, Tuesday

    Time Temperature Precipitation Wind Pressure Humidity
    00:00 +7°C° 0 mm 4 mps 756 mmHg 79%
    01:00 +6°C° 0 mm 4 mps 756 mmHg 79%
    02:00 +7°C° 0 mm 3 mps 756 mmHg 79%
    03:00 +7°C° 0 mm 3 mps 756 mmHg 79%
    04:00 +5°C° 0 mm 3 mps 756 mmHg 79%
    05:00 +5°C° 0 mm 3 mps 757 mmHg 78%
    06:00 +5°C° 0 mm 3 mps 757 mmHg 77%
    07:00 +4°C° 0 mm 3 mps 757 mmHg 77%
    08:00 +7°C° 0 mm 3 mps 757 mmHg 70%
    09:00 +8°C° 0 mm 2 mps 757 mmHg 64%
    10:00 +9°C° 0 mm 2 mps 757 mmHg 57%
    11:00 +10°C° 0 mm 2 mps 757 mmHg 55%
    12:00 +12°C° 0 mm 2 mps 756 mmHg 53%
    13:00 +12°C° 0 mm 2 mps 756 mmHg 51%
    14:00 +10°C° 0 mm 2 mps 756 mmHg 55%
    15:00 +9°C° 0 mm 2 mps 756 mmHg 59%
    16:00 +9°C° 0 mm 2 mps 756 mmHg 64%
    17:00 +8°C° 0 mm 2 mps 756 mmHg 65%
    18:00 +8°C° 0 mm 1 mps 756 mmHg 67%
    19:00 +8°C° 0 mm 1 mps 757 mmHg 69%
    20:00 +7°C° 0 mm 1 mps 757 mmHg 71%
    21:00 +7°C° 0 mm 1 mps 757 mmHg 72%
    22:00 +7°C° 0 mm 1 mps 757 mmHg 74%
    23:00 +7°C° 0 mm 1 mps 757 mmHg 74%
    Show more